Home   Weather   Mayagüez   Past weeks
Flag for Puerto Rico

Past Weather in Mayagüez, Puerto Rico — Yesterday and Last 2 Weeks

Now
75 °F

Mostly cloudy.


Feels Like: 75 °F
Forecast: 84 / 69 °F
Wind: No wind

Location: Aquadilla / Borinquen

Current Time: Mar 23, 2019 at 9:30:32 pm

Latest Report: Mar 23, 2019 at 7:50 pm


Visibility: 10 mi

Pressure: 30.08 "Hg

Humidity: 83%

Dew Point: 70 °F

Location of MayagüezLocation

Past Weather in Mayagüez — Graph

°F

Mayagüez Temperature Yesterday

Maximum temperature yesterday: 82 °F (at 11:50 am)
Minimum temperature yesterday: 66 °F (at 6:50 am)
Average temperature yesterday: 78 °F

High & Low Weather Summary for the Past Weeks

 TemperatureHumidityPressure
High84 °F (Mar 14, 1:50 pm)94% (Mar 13, 6:50 am)30.13 "Hg (Mar 13, 6:50 am)
Low66 °F (Mar 13, 6:50 am)54% (Mar 19, 9:50 am)29.91 "Hg (Mar 20, 3:55 pm)
Average77 °F73%30.04 "Hg
* Reported Mar 8 7:50 pm — Mar 23 7:50 pm, Mayagüez. Weather by CustomWeather, © 2019

Note: Actual official high and low records may vary slightly from our data, if they occured in-between our weather recording intervals... More about our weather records

Advertising

Mayagüez Weather History for the Previous 24 Hours

Scroll right to see more
 ConditionsComfort  
Time TempWeatherWind HumidityBarometerVisibility
7:50 pm
Sat, Mar 23
75 °FMostly cloudy.No wind83%30.08 "Hg10 mi
6:50 pm77 °FMore clouds than sun.10 mph79%30.07 "Hg10 mi
5:50 pm79 °FMore clouds than sun.8 mph74%30.06 "Hg10 mi
4:50 pm79 °FOvercast.13 mph74%30.05 "Hg10 mi
3:50 pm79 °FOvercast.14 mph74%30.05 "Hg10 mi
2:50 pm79 °FMore clouds than sun.13 mph74%30.06 "Hg10 mi
1:50 pm81 °FPartly sunny.17 mph70%30.07 "Hg10 mi
12:50 pm84 °FSunny.15 mph62%30.10 "Hg10 mi
11:50 am84 °FSunny.16 mph58%30.11 "Hg10 mi
10:50 am82 °FSunny.16 mph62%30.13 "Hg10 mi
9:50 am81 °FSunny.13 mph66%30.13 "Hg10 mi
8:50 am79 °FScattered clouds.8 mph70%30.11 "Hg10 mi
7:50 am73 °FScattered clouds.No wind89%30.09 "Hg10 mi
6:50 am72 °FPartly cloudy.No wind83%30.05 "Hg10 mi
2:50 am72 °FPassing clouds.3 mph94%30.02 "Hg10 mi
1:50 am73 °FPassing clouds.5 mph89%30.04 "Hg10 mi
12:50 am73 °FPassing clouds.No wind89%30.06 "Hg10 mi
11:50 pm
Fri, Mar 22
73 °FPassing clouds.No wind94%30.07 "Hg10 mi
Weather by CustomWeather, © 2019

See weather overview